Regional Weather Roundup
Issued by NWS Cleveland, OH

Home | Current Version | Previous Version | Graphics & Text | Print | Product List | Glossary On
Versions: 1 2 3 4 5 6 7 8 9 10 11 12 13 14 15 16 17 18 19 20 21 22 23 24 25 26 27 28 29 30 31 32 33 34 35 36 37 38 39 40 41 42 43 44 45 46 47 48 49 50
000
ASUS41 KCLE 201002
RWRCLE
OHIO REGIONAL WEATHER ROUNDUP
NATIONAL WEATHER SERVICE CLEVELAND, OH
600 AM EDT FRI OCT 20 2017

NOTE: "FAIR" INDICATES FEW OR NO CLOUDS BELOW 12,000 FEET WITH NO
SIGNIFICANT WEATHER AND/OR OBSTRUCTIONS TO VISIBILITY.

OHZ001>008-015>018-024>027-034-035-043-044-201100-
   NORTHWEST OHIO

CITY           SKY/WX    TMP DP  RH WIND       PRES   REMARKS
DEFIANCE       FAIR      40  37  89 CALM      30.25R
FINDLAY        FAIR      45  40  82 E5        30.24R
TOLEDO EXPRESS FAIR      39  37  92 CALM      30.25R
TOLEDO EXEC    FAIR      43  36  76 SE3       30.26R
LIMA           FAIR      42  42 100 S5        30.26R FOG
$$

OHZ009>014-019>023-028>033-038-089-201100-
   NORTHEAST OHIO

CITY           SKY/WX    TMP DP  RH WIND       PRES   REMARKS
CLE-HOPKINS    FAIR      46  44  93 S3        30.27R
CLE-LAKEFRONT  FAIR      53  47  79 SE3       30.24R
CUY CO. ARPT   NOT AVBL
LORAIN-ELYRIA  FAIR      44  38  79 CALM      30.26R
ASHTABULA      FAIR      41  41 100 CALM      30.25R
AKRON-CANTON   FAIR      49  43  80 W3        30.25R
WOOSTER        FAIR      39  38  96 CALM      30.26R
MANSFIELD      FAIR      47  41  80 NW3       30.26R
YOUNGSTOWN     FAIR      48  47  96 CALM      30.24R
$$

OHZ042-051>053-060>062-070>072-077>081-201100-
  SOUTHWEST OHIO

CITY           SKY/WX    TMP DP  RH WIND       PRES   REMARKS
CINC-COVINGTON FAIR      46  46 100 S3        30.26R
CINC-LUNKEN    FOG       47  47 100 CALM      30.28R VSB 1/4
HAMILTON       FOG       42  42 100 CALM      30.27R VSB 1/2
DAYTON         FAIR      50  49  96 S3        30.27R
WRIGHT-PAT AFB NOT AVBL
DAYTON GENERAL FAIR      51  48  89 CALM      30.25R
WILMINGTON     FAIR      48  48 100 CALM      30.27R FOG
$$

OHZ036-037-039>041-045>050-054>059-063>069-073>076-082>088-201100-
  CENTRAL AND SOUTHEAST OHIO

CITY           SKY/WX    TMP DP  RH WIND       PRES   REMARKS
COLUMBUS       FAIR      49  48  97 NW3       30.25R
OSU AIRPORT    FAIR      49  49 100 NW5       30.25R
BOLTON FIELD   FAIR      49  48  97 NW3       30.25S
RICKENBACK AFB FAIR      47  47 100 CALM      30.25R
NEWARK         FAIR      43  40  89 CALM      30.25R FOG
MARION         FOG       40  40 100 CALM      30.26R VSB 1/4
LANCASTER      FAIR      43  43 100 CALM      30.25R
ZANESVILLE     FAIR      46  43  89 CALM      30.25R
NEW PHILLY     NOT AVBL
$$




USA.gov is the U.S. government's official web portal to all federal, state and local government web resources and services.